Regional Weather Roundup
Issued by NWS

Home | Current Version | Previous Version | Text Only | Print | Product List | Glossary On
Versions: 1 2 3 4 5 6 7 8 9 10 11 12 13 14 15 16 17 18 19 20 21 22 23 24 25 26 27 28 29 30 31 32 33 34 35 36 37 38 39 40 41 42 43 44 45 46 47 48 49 50
530
ASUS43 KBIS 160502
RWRND

NORTH DAKOTA REGIONAL WEATHER ROUNDUP
NATIONAL WEATHER SERVICE BISMARCK ND
1100 PM CST SUN JAN 15 2017

NOTE: "FAIR" INDICATES FEW OR NO CLOUDS BELOW 12,000 FEET WITH NO
SIGNIFICANT WEATHER AND/OR OBSTRUCTIONS TO VISIBILITY.


NDZ001>003-009>011-017-160600-
NORTHWEST NORTH DAKOTA

CITY           SKY/WX    TMP DP  RH WIND       PRES   REMARKS
WILLISTON      FAIR      11   5  77 S6        30.00R WCI   1
MINOT          FAIR      21  10  62 W7        29.96R WCI  12
$$

NDZ018>021-031>035-040>046-160600-
SOUTHWEST NORTH DAKOTA

CITY           SKY/WX    TMP DP  RH WIND       PRES   REMARKS
BISMARCK       FAIR       0  -5  79 CALM      30.05S
DICKINSON      FAIR      18   5  57 W13       29.99R WCI   5
GARRISON         N/A     11   5  77 W3        29.99S
HETTINGER ARPT CLOUDY     8   3  80 CALM      30.04R
$$

NDZ004>008-012>016-024-026-027-054-160600-
NORTHEAST NORTH DAKOTA

CITY           SKY/WX    TMP DP  RH WIND       PRES   REMARKS
GRAND FORKS    CLOUDY    10   3  73 S12       30.03R WCI  -5
GRND FRKS AFB  CLOUDY    11   4  72 S10       30.02S WCI  -2
DEVILS LAKE    FAIR      12   5  73 SW8       30.00R WCI   0
$$

NDZ022-023-025-028>030-036>039-047>053-160600-
SOUTHEAST NORTH DAKOTA

CITY           SKY/WX    TMP DP  RH WIND       PRES   REMARKS
FARGO          CLOUDY    14  10  84 S9        30.08S WCI   2
JAMESTOWN      FAIR       5   1  83 S7        30.03R WCI  -7
$$





USA.gov is the U.S. government's official web portal to all federal, state and local government web resources and services.